Location: Feydey
(46.3431°N, 7.0106°E)
Time: 07:09:27
(UTC+00:00)

USA 229 - Pass Details

Date: 20 June 2021
Orbit: 956 x 1256 km, 63.5° (Epoch: 25 July)

Event Time Altitude Azimuth Distance (km) Brightness Sun altitude
Exits shadow 23:38:44 36° 188° (S) 1,537 4.0 -20.2°
Maximum altitude 23:41:24 62° 122° (ESE) 1,129 3.6 -20.2°
Drops below altitude 10° 23:48:06 10° 44° (NE) 2,902 6.7 -20.1°
Sets 23:50:51 0° 41° (NE) 3,907 7.5 -20.1°
